When you browse on this site, cookies collect data to enhance your experience and personalize the content and advertising you see.
Visit our Privacy Policy to learn more. By continuing to use the site, you agree to this use of cookies and data.
  • In Hungary
  • List of Countries
  • For 7 days
  • Water Temperature
  • Satellite Maps
  • Weather Map
  • News
  • Weather Widgets
  • user-avatar
    Login

    Hourly Weather Starzyna

    Today, 22 May, Wednesday

    Time Temperature Precipitation Wind Pressure Humidity
    00:00 +12°C° 0 mm 3 mps 739 mmHg 93%
    01:00 +11°C° 0 mm 3 mps 739 mmHg 94%
    02:00 +11°C° 0 mm 3 mps 738 mmHg 96%
    03:00 +11°C° 0 mm 3 mps 739 mmHg 95%
    04:00 +11°C° 0 mm 3 mps 739 mmHg 95%
    05:00 +11°C° 0 mm 3 mps 739 mmHg 95%
    06:00 +12°C° 0 mm 4 mps 739 mmHg 89%
    07:00 +14°C° 0 mm 4 mps 739 mmHg 83%
    08:00 +17°C° 0 mm 4 mps 739 mmHg 75%
    09:00 +16°C° 0.1 mm 5 mps 739 mmHg 73%
    10:00 +17°C° 0.1 mm 5 mps 739 mmHg 71%
    11:00 +19°C° 0.1 mm 5 mps 739 mmHg 68%
    12:00 +19°C° 0.5 mm 5 mps 739 mmHg 70%
    13:00 +20°C° 0.5 mm 5 mps 739 mmHg 71%
    14:00 +20°C° 0.5 mm 4 mps 739 mmHg 72%
    15:00 +20°C° 0.5 mm 4 mps 739 mmHg 73%
    16:00 +20°C° 0.5 mm 4 mps 739 mmHg 74%
    17:00 +20°C° 0.5 mm 4 mps 739 mmHg 75%
    18:00 +19°C° 0.2 mm 3 mps 739 mmHg 80%
    19:00 +17°C° 0.2 mm 3 mps 739 mmHg 86%
    20:00 +16°C° 0.2 mm 2 mps 739 mmHg 91%
    21:00 +16°C° 0 mm 2 mps 739 mmHg 92%
    22:00 +15°C° 0 mm 2 mps 739 mmHg 93%
    23:00 +14°C° 0 mm 2 mps 740 mmHg 94%

    Tomorrow, 23 May, Thursday

    Time Temperature Precipitation Wind Pressure Humidity
    00:00 +14°C° 0 mm 1 mps 740 mmHg 94%
    01:00 +13°C° 0 mm 1 mps 740 mmHg 94%
    02:00 +13°C° 0 mm 1 mps 740 mmHg 95%
    03:00 +13°C° 0 mm 1 mps 740 mmHg 95%
    04:00 +13°C° 0 mm 1 mps 740 mmHg 95%
    05:00 +12°C° 0 mm 1 mps 740 mmHg 95%
    06:00 +14°C° 0 mm 1 mps 741 mmHg 90%
    07:00 +16°C° 0 mm 1 mps 741 mmHg 84%
    08:00 +19°C° 0 mm 1 mps 741 mmHg 79%
    09:00 +19°C° 0 mm 0 mps 741 mmHg 72%
    10:00 +20°C° 0 mm 0 mps 742 mmHg 64%
    11:00 +22°C° 0 mm 0 mps 742 mmHg 57%
    12:00 +23°C° 0 mm 0 mps 742 mmHg 54%
    13:00 +25°C° 0 mm 1 mps 741 mmHg 52%
    14:00 +26°C° 0 mm 1 mps 741 mmHg 49%
    15:00 +25°C° 0.2 mm 1 mps 741 mmHg 53%
    16:00 +25°C° 0.2 mm 2 mps 741 mmHg 56%
    17:00 +24°C° 0.2 mm 3 mps 741 mmHg 60%
    18:00 +22°C° 0.7 mm 3 mps 741 mmHg 70%
    19:00 +20°C° 0.7 mm 3 mps 741 mmHg 80%
    20:00 +18°C° 0.7 mm 3 mps 741 mmHg 89%
    21:00 +17°C° 0.2 mm 3 mps 742 mmHg 92%
    22:00 +17°C° 0.2 mm 3 mps 742 mmHg 94%
    23:00 +16°C° 0.2 mm 3 mps 742 mmHg 97%

    Day after tomorrow, 24 May, Friday

    Time Temperature Precipitation Wind Pressure Humidity
    00:00 +14°C° 0 mm 3 mps 742 mmHg 97%
    01:00 +13°C° 0 mm 4 mps 742 mmHg 96%
    02:00 +13°C° 0 mm 4 mps 742 mmHg 96%
    03:00 +12°C° 0 mm 4 mps 742 mmHg 95%
    04:00 +12°C° 0 mm 4 mps 742 mmHg 95%
    05:00 +12°C° 0 mm 4 mps 742 mmHg 95%
    06:00 +12°C° 0 mm 3 mps 742 mmHg 94%
    07:00 +12°C° 0 mm 3 mps 743 mmHg 92%
    08:00 +12°C° 0 mm 3 mps 743 mmHg 91%
    09:00 +14°C° 0 mm 3 mps 743 mmHg 87%
    10:00 +16°C° 0 mm 3 mps 743 mmHg 83%
    11:00 +17°C° 0 mm 3 mps 743 mmHg 79%
    12:00 +18°C° 0 mm 3 mps 742 mmHg 77%
    13:00 +19°C° 0 mm 3 mps 742 mmHg 76%
    14:00 +20°C° 0 mm 4 mps 742 mmHg 74%
    15:00 +20°C° 0.3 mm 4 mps 742 mmHg 75%
    16:00 +20°C° 0.3 mm 4 mps 742 mmHg 75%
    17:00 +20°C° 0.3 mm 4 mps 741 mmHg 76%
    18:00 +19°C° 0.4 mm 4 mps 741 mmHg 79%
    19:00 +18°C° 0.4 mm 4 mps 741 mmHg 83%
    20:00 +17°C° 0.4 mm 3 mps 741 mmHg 87%
    21:00 +14°C° 0 mm 3 mps 742 mmHg 87%
    22:00 +13°C° 0 mm 3 mps 742 mmHg 88%
    23:00 +12°C° 0 mm 3 mps 742 mmHg 89%

    25 May, Saturday

    Time Temperature Precipitation Wind Pressure Humidity
    00:00 +11°C° 0 mm 3 mps 742 mmHg 88%
    01:00 +10°C° 0 mm 3 mps 742 mmHg 88%
    02:00 +10°C° 0 mm 2 mps 742 mmHg 88%
    03:00 +9°C° 0 mm 2 mps 742 mmHg 88%
    04:00 +9°C° 0 mm 2 mps 742 mmHg 87%
    05:00 +8°C° 0 mm 2 mps 742 mmHg 86%
    06:00 +12°C° 0 mm 2 mps 742 mmHg 80%
    07:00 +14°C° 0 mm 2 mps 742 mmHg 74%
    08:00 +16°C° 0 mm 2 mps 742 mmHg 67%
    09:00 +17°C° 0 mm 3 mps 742 mmHg 65%
    10:00 +19°C° 0 mm 3 mps 742 mmHg 63%
    11:00 +20°C° 0 mm 4 mps 742 mmHg 60%
    12:00 +21°C° 0.2 mm 4 mps 741 mmHg 59%
    13:00 +21°C° 0.2 mm 5 mps 741 mmHg 58%
    14:00 +21°C° 0.2 mm 5 mps 741 mmHg 56%
    15:00 +21°C° 0.2 mm 5 mps 741 mmHg 59%
    16:00 +20°C° 0.2 mm 5 mps 741 mmHg 61%
    17:00 +20°C° 0.2 mm 4 mps 741 mmHg 64%
    18:00 +19°C° 0 mm 4 mps 741 mmHg 68%
    19:00 +18°C° 0 mm 3 mps 741 mmHg 73%
    20:00 +17°C° 0 mm 3 mps 741 mmHg 77%
    21:00 +15°C° 0 mm 2 mps 741 mmHg 81%
    22:00 +14°C° 0 mm 2 mps 741 mmHg 85%
    23:00 +12°C° 0 mm 2 mps 741 mmHg 90%

    26 May, Sunday

    Time Temperature Precipitation Wind Pressure Humidity
    00:00 +12°C° 0 mm 1 mps 741 mmHg 91%
    01:00 +12°C° 0 mm 1 mps 741 mmHg 92%
    02:00 +11°C° 0 mm 1 mps 741 mmHg 93%
    03:00 +10°C° 0 mm 2 mps 741 mmHg 92%
    04:00 +11°C° 0 mm 3 mps 741 mmHg 91%
    05:00 +11°C° 0 mm 4 mps 741 mmHg 91%
    06:00 +12°C° 0 mm 4 mps 741 mmHg 85%
    07:00 +12°C° 0 mm 5 mps 741 mmHg 79%
    08:00 +13°C° 0 mm 5 mps 741 mmHg 73%
    09:00 +13°C° 0 mm 5 mps 741 mmHg 71%
    10:00 +13°C° 0 mm 5 mps 741 mmHg 70%
    11:00 +14°C° 0 mm 5 mps 741 mmHg 69%
    12:00 +14°C° 0 mm 5 mps 741 mmHg 68%
    13:00 +14°C° 0 mm 6 mps 741 mmHg 67%
    14:00 +14°C° 0 mm 6 mps 740 mmHg 66%
    15:00 +14°C° 0 mm 6 mps 740 mmHg 67%
    16:00 +14°C° 0 mm 5 mps 740 mmHg 67%
    17:00 +13°C° 0 mm 5 mps 740 mmHg 68%
    18:00 +12°C° 0.1 mm 5 mps 740 mmHg 71%
    19:00 +12°C° 0.1 mm 4 mps 740 mmHg 75%
    20:00 +11°C° 0.1 mm 4 mps 740 mmHg 78%
    21:00 +10°C° 0 mm 4 mps 740 mmHg 81%
    22:00 +8°C° 0 mm 4 mps 740 mmHg 83%
    23:00 +7°C° 0 mm 4 mps 741 mmHg 86%

    27 May, Monday

    Time Temperature Precipitation Wind Pressure Humidity
    00:00 +6°C° 0 mm 4 mps 741 mmHg 85%
    01:00 +6°C° 0 mm 4 mps 741 mmHg 84%
    02:00 +5°C° 0 mm 5 mps 741 mmHg 83%
    03:00 +5°C° 0 mm 5 mps 741 mmHg 83%
    04:00 +5°C° 0 mm 5 mps 742 mmHg 82%
    05:00 +5°C° 0 mm 5 mps 742 mmHg 82%
    06:00 +6°C° 0 mm 5 mps 742 mmHg 78%
    07:00 +8°C° 0 mm 5 mps 742 mmHg 73%
    08:00 +9°C° 0 mm 6 mps 743 mmHg 69%
    09:00 +10°C° 0 mm 5 mps 743 mmHg 66%
    10:00 +13°C° 0 mm 5 mps 743 mmHg 63%
    11:00 +14°C° 0 mm 5 mps 743 mmHg 60%
    12:00 +15°C° 0 mm 5 mps 743 mmHg 59%
    13:00 +16°C° 0 mm 5 mps 743 mmHg 57%
    14:00 +18°C° 0 mm 4 mps 743 mmHg 55%
    15:00 +18°C° 0 mm 4 mps 743 mmHg 55%
    16:00 +18°C° 0 mm 3 mps 743 mmHg 55%
    17:00 +18°C° 0 mm 3 mps 743 mmHg 55%
    18:00 +17°C° 0 mm 2 mps 742 mmHg 60%
    19:00 +16°C° 0 mm 2 mps 742 mmHg 66%
    20:00 +14°C° 0 mm 1 mps 742 mmHg 71%
    21:00 +14°C° 0 mm 2 mps 742 mmHg 73%
    22:00 +13°C° 0 mm 2 mps 742 mmHg 74%
    23:00 +12°C° 0 mm 2 mps 742 mmHg 75%
    Show more